Regional Weather Roundup
Issued by NWS

Home | Current Version | Previous Version | Text Only | Print | Product List | Glossary Off
Versions: 1 2 3 4 5 6 7 8 9 10 11 12 13 14 15 16 17 18 19 20 21 22 23 24 25 26 27 28 29 30 31 32 33 34 35 36 37 38 39 40 41 42 43 44 45 46 47 48 49 50

000
ASUS43 KOAX 010002
RWRNE

WEATHER ROUNDUP FOR NEBRASKA
NATIONAL WEATHER SERVICE OMAHA NE
600 PM CST SAT JAN 31 2015

NOTES: SATELLITE DATA IS BEING USED TO AUGMENT CLOUD COVER ABOVE
       12000 FEET.
       "FAIR" INDICATES FEW OR NO CLOUDS BELOW 12,000 FEET WITH NO
       SIGNIFICANT WEATHER AND/OR OBSTRUCTIONS TO VISIBILITY.

  * THESE STATIONS DO NOT REPORT WEATHER SUCH AS RAIN...SNOW OR FOG.

NEZ001>004-019>022-054>056-010100-
NEBRASKA PANHANDLE

CITY           SKY/WX    TMP DP  RH WIND       PRES   REMARKS
SCOTTSBLUFF    CLOUDY    32  28  85 NE5       29.86S WCI  27
6HR MIN TEMP:  32; 6HR MAX TEMP:  33; 6HR PCP:  0.17;

ALLIANCE       LGT SNOW  26  24  92 NE16      29.87R FOG     WCI  14
6HR MIN TEMP:  26; 6HR MAX TEMP:  31; 6HR PCP: TRACE;

CHADRON        FOG       25  23  92 NE15      29.95R VSB 1/4 WCI  13
6HR MIN TEMP:  25; 6HR MAX TEMP:  34; 6HR PCP: TRACE;

SIDNEY         LGT SNOW  31  29  92 N9        29.84R FOG     WCI  23
6HR MIN TEMP:  31; 6HR MAX TEMP:  34; 6HR PCP:  0.11;

$$

NEZ057>060-069>072-079>082-010100-
SOUTHWEST NEBRASKA

CITY           SKY/WX    TMP DP  RH WIND       PRES   REMARKS
NORTH PLATTE   LGT SNOW  31  29  92 NE15G23   29.84S VSB 3/4 WCI  20
6HR MIN TEMP:  31; 6HR MAX TEMP:  35; 6HR PCP:  0.10;

IMPERIAL       LGT SNOW  33  31  92 N7        29.82S FOG     WCI  27
6HR MIN TEMP:  33; 6HR MAX TEMP:  34; 6HR PCP:  0.05;

MCCOOK         LGT SNOW  33  32  96 N8        29.82S FOG     WCI  26
6HR MIN TEMP:  33; 6HR MAX TEMP:  37; 6HR PCP:  0.03;

$$

NEZ005>010-023>029-035>040-094-010100-
NORTH CENTRAL NEBRASKA

CITY           SKY/WX    TMP DP  RH WIND       PRES   REMARKS
VALENTINE      LGT SNOW  21  19  92 NE17      29.98R VSB 3/4 WCI   7
6HR MIN TEMP:  21; 6HR MAX TEMP:  26; 6HR PCP:  0.05;

BROKEN BOW     SNOW      31  29  92 N15       29.86R VSB 1/2 WCI  20
6HR MIN TEMP:  31; 6HR MAX TEMP:  35; 6HR PCP:  0.06;

ORD            SNOW      32  31  96 NE5       29.87F VSB 1/2 WCI  27
6HR MIN TEMP:  32; 6HR MAX TEMP:  35; 6HR PCP:  0.06;

$$

NEZ041-046>049-061>064-073>077-083>087-010100-
SOUTH CENTRAL NEBRASKA

CITY           SKY/WX    TMP DP  RH WIND       PRES   REMARKS
GRAND ISLAND   LGT SNOW  32  31  96 E5        29.88F VSB 3/4 WCI  27
6HR MIN TEMP:  32; 6HR MAX TEMP:  33; 6HR PCP:  0.09;

HASTINGS       LGT SNOW  32  31  96 SE5       29.85F FOG     WCI  27
6HR MIN TEMP:  32; 6HR MAX TEMP:  33; 6HR PCP:  0.08;

KEARNEY *      CLOUDY    32  30  93 NE5       29.86R VSB 3/4 WCI  27
$$

NEZ011>018-030>034-042>045-010100-
NORTHEAST NEBRASKA

CITY           SKY/WX    TMP DP  RH WIND       PRES   REMARKS
NORFOLK        LGT SNOW  33  32  96 E6        29.92F FOG     WCI  28
6HR MIN TEMP:  33; 6HR MAX TEMP:  37; 6HR PCP:  0.03;

TEKAMAH        LGT SNOW  33  32  96 E6        29.98S FOG     WCI  28
6HR MIN TEMP:  33; 6HR MAX TEMP:  38; 6HR PCP:  0.18;

$$

NEZ050>053-065>068-078-088>093-010100-
SOUTHEAST NEBRASKA

CITY           SKY/WX    TMP DP  RH WIND       PRES   REMARKS
LINCOLN        LGT SNOW  33  32  96 SE3       29.93F FOG
6HR MIN TEMP:  33; 6HR MAX TEMP:  34; 6HR PCP:  0.31;

OMAHA EPPLEY   LGT SNOW  33  32  96 SE7       29.97F VSB 1   WCI  27
6HR MIN TEMP:  33; 6HR MAX TEMP:  35; 6HR PCP:  0.20;

FALLS CITY     LGT SNOW  33  33 100 SE8       29.96F FOG     WCI  26
6HR MIN TEMP:  33; 6HR MAX TEMP:  35; 6HR PCP:  0.24;

$$

NEZ044-045-051>053-067-010100-
OMAHA AREA

CITY           SKY/WX    TMP DP  RH WIND       PRES   REMARKS
OMAHA EPPLEY   LGT SNOW  33  32  96 SE7       29.97F VSB 1   WCI  27
6HR MIN TEMP:  33; 6HR MAX TEMP:  35; 6HR PCP:  0.20;

$$



USA.gov is the U.S. government's official web portal to all federal, state and local government web resources and services.